[[{"header":{"parameterUnit":"m.s-1","parameterCategory":1,"la1":30.2991,"la2":30.254,"lo1":-89.0895,"lo2":-89.0444,"dy":0.0017,"dx":0.0017,"nx":28,"ny":28,"refTime":"2025-08-17T09:00:00:Z","depth":0,"parameterNumber":2,"parameterNumberName":"U-component_of_WINDS"},"data":[0,0,0,0,0,0,0,0,0,0,0,0,0,0,0,0,0,0,0,0,0,0,0,0,0,0,0,0,0,0,0,0,0,0,0,0,0,0,0,0,0,0,0,0,0,0,0,0,0,0,0,0,0,0,0,0,0,0,0.371,0.371,0,0.3702,0.3702,0.3702,0.3692,0.3692,0.3692,0.3692,0.3684,0.3684,0.3684,0,0,0,0,0,0,0,0,0,0,0,0,0,0.3715,0.3715,0.371,0.371,0.371,0.3702,0.3702,0.3702,0.3692,0.3692,0.3692,0.3692,0.3684,0.3684,0.3684,0,0,0,0,0,0,0,0,0,0,0,0,0,0.3711,0.3715,0.371,0.3704,0.3703,0.3702,0.3702,0.3702,0.3693,0.3692,0.3692,0.3692,0.3684,0.3684,0.3684,0.3689,0,0,0.3684,0.3684,0,0,0,0,0,0,0,0,0.3711,0.3711,0.3705,0.3704,0.3704,0.3698,0.3701,0.3698,0.3693,0.3697,0.3692,0.3692,0.3689,0.3689,0.3688,0.3688,0.3688,0.3684,0.3684,0.3684,0.3684,0,0,0,0,0,0,0,0.3711,0.3711,0.3707,0.3705,0.3704,0.3702,0.3701,0.3701,0.3694,0.3696,0.3695,0.3695,0.3689,0.3688,0.3687,0.3688,0.3684,0.3684,0.3684,0.3684,0.3691,0.3691,0,0,0,0,0,0,0.3713,0.3711,0.3707,0.3707,0.3707,0.3702,0.3701,0.37,0.3694,0.3693,0.3695,0.3694,0.3688,0.3688,0.3687,0.3692,0.3684,0.3684,0.3684,0.3691,0.3691,0.3692,0,0,0,0,0,0,0.3713,0.3712,0.3707,0.3709,0.3708,0.3702,0.3701,0.37,0.3699,0.3693,0.3692,0.3695,0.3688,0.3687,0.3688,0.3691,0.3684,0.3684,0.3691,0.3691,0.3691,0.3701,0,0,0,0,0,0,0.3713,0.3712,0.3714,0.3709,0.3708,0.3709,0.3701,0.37,0.3699,0.3698,0.3693,0.3692,0.3688,0.3688,0.3688,0.3691,0.3684,0.369,0.3691,0.3691,0.37,0.3702,0.3703,0,0,0,0,0,0.3713,0.3717,0.3714,0.3714,0.371,0.3709,0.3708,0.3703,0.3699,0.3701,0.3697,0.3692,0.3691,0.3689,0.3688,0.3691,0.369,0.3691,0.3691,0.37,0.3702,0.3703,0,0,0,0,0,0,0.3723,0.3716,0.3713,0.3715,0.3713,0.3707,0.3709,0.3705,0.3703,0.3702,0.3696,0.3695,0.3696,0.3694,0.3691,0.3695,0.369,0.369,0.3697,0.3698,0.3699,0.37,0.3684,0,0,0,0,0,0.3725,0.3725,0.3719,0.3722,0.3721,0.3715,0.3715,0.3711,0.3708,0.3707,0.3703,0.37,0.3699,0.3698,0.3697,0.37,0.3699,0.3702,0.3703,0.3704,0.3705,0.3706,0.3707,0.3693,0.3693,0.3693,0,0,0.373,0.3727,0.3727,0.3724,0.3721,0.3721,0.3714,0.3715,0.3714,0.3707,0.3707,0.3704,0.3701,0.3703,0.3703,0.3701,0.3708,0.3705,0.3706,0.3706,0.3707,0.3708,0.3709,0.3694,0.3694,0.3694,0,0,0.3739,0.3737,0.3738,0.3736,0.3732,0.3729,0.3729,0.3724,0.3722,0.3723,0.3717,0.3716,0.3715,0.3712,0.3711,0.3719,0.3714,0.3719,0.3725,0.3726,0.3727,0.3728,0.3731,0.3732,0.3719,0.3719,0.3719,0,0.3746,0.3746,0.374,0.3741,0.3739,0.3732,0.3734,0.3732,0.3728,0.3727,0.3724,0.3722,0.3719,0.372,0.3722,0.3722,0.3722,0.3719,0.3728,0.3729,0.3729,0.3732,0.3733,0.372,0.372,0.372,0.372,0,0.3754,0.3754,0.3756,0.3752,0.3751,0.3752,0.3747,0.3746,0.3743,0.3739,0.374,0.3736,0.3734,0.3734,0.373,0.3734,0.3733,0.3729,0.3724,0.3731,0.3734,0.3734,0.3721,0.372,0.372,0.372,0,0,0.3769,0.3762,0.3763,0.3761,0.3757,0.3756,0.3757,0.3755,0.3755,0.3752,0.3753,0.3751,0.3748,0.3746,0.3742,0.3743,0.375,0.3739,0.3739,0.3741,0.3754,0.3757,0.3758,0.3747,0.3747,0.3747,0.3754,0,0.3777,0.3778,0.3773,0.3775,0.3775,0.3768,0.3769,0.3766,0.3763,0.3762,0.3758,0.3758,0.3753,0.3752,0.3753,0.3749,0.3752,0.3748,0.3747,0.3747,0.3748,0.376,0.3763,0.377,0.3755,0.3755,0.3755,0,0.3787,0.3785,0.3787,0.3782,0.3782,0.3783,0.378,0.378,0.3776,0.3774,0.3772,0.3767,0.3768,0.3763,0.3763,0.376,0.3759,0.3757,0.3758,0.3757,0.3752,0.3759,0.3772,0.3773,0.3757,0.3757,0.3757,0,0.3797,0.3795,0.3796,0.3795,0.3789,0.379,0.3788,0.3784,0.3783,0.3781,0.378,0.3778,0.3777,0.3775,0.377,0.3767,0.3771,0.3766,0.3769,0.3769,0.377,0.377,0.3783,0.377,0.377,0.377,0.377,0,0.3807,0.3808,0.3801,0.3802,0.3803,0.3797,0.3799,0.3796,0.3793,0.3793,0.3787,0.3787,0.378,0.3779,0.3775,0.3776,0.3776,0.3773,0.3772,0.3774,0.3774,0.3773,0.3772,0.377,0.377,0.377,0.377,0,0.3819,0.3814,0.3815,0.3809,0.3808,0.3809,0.3805,0.3805,0.3802,0.3801,0.3801,0.3795,0.3794,0.3789,0.3786,0.3783,0.3785,0.3783,0.3787,0.3786,0.3789,0.3789,0.3802,0.3803,0.3789,0.379,0.379,0,0.3825,0.3826,0.3821,0.3821,0.3819,0.3818,0.3817,0.3811,0.381,0.3806,0.3807,0.3805,0.3804,0.3802,0.3797,0.3795,0.3793,0.3798,0.3793,0.3794,0.3793,0.3793,0.3793,0.3799,0.3799,0.3799,0.3799,0,0.3837,0.3834,0.3833,0.3831,0.383,0.3828,0.3826,0.3826,0.3819,0.3819,0.3817,0.3816,0.3813,0.3812,0.3809,0.3806,0.3802,0.3801,0.3801,0.3803,0.3805,0.3804,0.3789,0.3801,0.38,0.38,0.38,0.38,0.3846,0.3847,0.3843,0.3842,0.384,0.3838,0.3838,0.3834,0.3833,0.383,0.3827,0.3826,0.3822,0.3818,0.3816,0.3815,0.3813,0.3813,0.3814,0.3814,0.3815,0.3805,0.3815,0.3815,0.3814,0.3814,0.3814,0,0.3858,0.3855,0.3854,0.3851,0.385,0.3846,0.3843,0.3842,0.3842,0.3839,0.3837,0.3836,0.3834,0.3829,0.3827,0.3827,0.3825,0.3827,0.3827,0.3826,0.3817,0.3817,0.3828,0.3828,0.3828,0.3828,0.3828,0.3828,0.3863,0.3864,0.3861,0.3861,0.3858,0.3857,0.3856,0.3854,0.3852,0.385,0.3849,0.3846,0.3842,0.384,0.3838,0.3836,0.3836,0.3838,0.3836,0.3828,0.3827,0.3825,0.3825,0.3838,0.3838,0.3845,0.3845,0.3845]},{"header":{"parameterUnit":"m.s-1","parameterCategory":1,"la1":30.2991,"la2":30.254,"lo1":-89.0895,"lo2":-89.0444,"dy":0.0017,"dx":0.0017,"nx":28,"ny":28,"refTime":"2025-08-17T09:00:00:Z","depth":0,"parameterNumber":3,"parameterNumberName":"V-component_of_WINDS"},"data":[0,0,0,0,0,0,0,0,0,0,0,0,0,0,0,0,0,0,0,0,0,0,0,0,0,0,0,0,0,0,0,0,0,0,0,0,0,0,0,0,0,0,0,0,0,0,0,0,0,0,0,0,0,0,0,0,0,0,-0.0881,-0.0879,0,-0.0723,-0.0721,-0.0719,-0.0643,-0.0643,-0.0644,-0.0644,-0.0479,-0.0474,-0.047,0,0,0,0,0,0,0,0,0,0,0,0,0,-0.1118,-0.1114,-0.0881,-0.0879,-0.0877,-0.0723,-0.0721,-0.0719,-0.0643,-0.0643,-0.0644,-0.0644,-0.048,-0.0475,-0.047,0,0,0,0,0,0,0,0,0,0,0,0,0,-0.0993,-0.1113,-0.0882,-0.0821,-0.0814,-0.0724,-0.0721,-0.0718,-0.0643,-0.0643,-0.0644,-0.0644,-0.0482,-0.0476,-0.0469,-0.0426,0,0,-0.0449,-0.0446,0,0,0,0,0,0,0,0,-0.1,-0.0985,-0.0832,-0.0825,-0.0817,-0.0703,-0.0744,-0.062,-0.0643,-0.0708,-0.0644,-0.0644,-0.0553,-0.0541,-0.0511,-0.0418,-0.0411,-0.0448,-0.0444,-0.0441,-0.0439,0,0,0,0,0,0,0,-0.1009,-0.0991,-0.0818,-0.083,-0.0821,-0.0802,-0.0784,-0.072,-0.0632,-0.0702,-0.0697,-0.0679,-0.0549,-0.0517,-0.0506,-0.0409,-0.0448,-0.0442,-0.0438,-0.0435,-0.0277,-0.0276,0,0,0,0,0,0,-0.1028,-0.0999,-0.0823,-0.0814,-0.0911,-0.0798,-0.0778,-0.074,-0.0632,-0.0616,-0.0679,-0.0676,-0.0529,-0.0514,-0.05,-0.0445,-0.0441,-0.0435,-0.0431,-0.0277,-0.0277,-0.0276,0,0,0,0,0,0,-0.1033,-0.1013,-0.083,-0.0905,-0.088,-0.0794,-0.0751,-0.0736,-0.0704,-0.0615,-0.0599,-0.0663,-0.0528,-0.051,-0.0446,-0.0438,-0.0432,-0.0426,-0.0277,-0.0277,-0.0277,-0.0333,0,0,0,0,0,0,-0.104,-0.1015,-0.0998,-0.0905,-0.0876,-0.0778,-0.075,-0.0733,-0.0693,-0.0688,-0.0595,-0.058,-0.0527,-0.0456,-0.0439,-0.0429,-0.0421,-0.0277,-0.0277,-0.0277,-0.0331,-0.0334,-0.0337,0,0,0,0,0,-0.1049,-0.1018,-0.0997,-0.0976,-0.0852,-0.0778,-0.0761,-0.0702,-0.0693,-0.0675,-0.0618,-0.0583,-0.0442,-0.045,-0.0431,-0.0418,-0.0278,-0.0277,-0.0277,-0.033,-0.0334,-0.0337,0,0,0,0,0,0,-0.111,-0.1005,-0.098,-0.0918,-0.0858,-0.0765,-0.074,-0.0707,-0.0647,-0.0644,-0.0572,-0.0552,-0.0495,-0.045,-0.0461,-0.0373,-0.0357,-0.0352,-0.0404,-0.0407,-0.041,-0.0422,-0.0415,0,0,0,0,0,-0.1117,-0.1066,-0.0976,-0.093,-0.0902,-0.0827,-0.0792,-0.0752,-0.0686,-0.0659,-0.0597,-0.0534,-0.0476,-0.0439,-0.038,-0.0325,-0.0305,-0.0307,-0.031,-0.0313,-0.031,-0.028,-0.0281,-0.0275,-0.0275,-0.0275,0,0,-0.1129,-0.1065,-0.1037,-0.0941,-0.0889,-0.0839,-0.0805,-0.0752,-0.0713,-0.065,-0.0588,-0.0541,-0.0466,-0.0407,-0.0378,-0.0368,-0.0307,-0.0312,-0.0315,-0.031,-0.028,-0.028,-0.0281,-0.0275,-0.0275,-0.0275,0,0,-0.1126,-0.1072,-0.1029,-0.098,-0.0903,-0.0854,-0.0844,-0.0757,-0.0724,-0.0661,-0.0614,-0.0567,-0.0467,-0.0417,-0.0378,-0.0362,-0.0328,-0.0345,-0.036,-0.0332,-0.0333,-0.0333,-0.0329,-0.0328,-0.0342,-0.0342,-0.0342,0,-0.115,-0.1072,-0.1011,-0.0962,-0.0922,-0.0866,-0.0823,-0.0777,-0.0685,-0.0659,-0.0649,-0.0526,-0.0471,-0.0402,-0.0398,-0.0368,-0.0356,-0.0354,-0.0338,-0.0337,-0.0336,-0.0332,-0.033,-0.0345,-0.0345,-0.0344,-0.0344,0,-0.1107,-0.1054,-0.1029,-0.0944,-0.0902,-0.0855,-0.0789,-0.0753,-0.0718,-0.0671,-0.0608,-0.0542,-0.047,-0.0451,-0.0414,-0.0377,-0.0373,-0.0352,-0.0334,-0.0341,-0.0335,-0.0333,-0.0349,-0.0348,-0.0347,-0.0346,0,0,-0.1134,-0.102,-0.1012,-0.0975,-0.0888,-0.0846,-0.0799,-0.0731,-0.0703,-0.0642,-0.0601,-0.0521,-0.0502,-0.0458,-0.0417,-0.0392,-0.0387,-0.0374,-0.0371,-0.038,-0.0344,-0.0362,-0.036,-0.0364,-0.0364,-0.0363,-0.0351,0,-0.112,-0.1033,-0.098,-0.0915,-0.0866,-0.0815,-0.0774,-0.0717,-0.0673,-0.0626,-0.0576,-0.0521,-0.0499,-0.0473,-0.0447,-0.0393,-0.0379,-0.0393,-0.0327,-0.0325,-0.0347,-0.0357,-0.0374,-0.0365,-0.0348,-0.0348,-0.0348,0,-0.109,-0.1034,-0.0965,-0.0888,-0.0866,-0.083,-0.0766,-0.0721,-0.0657,-0.0626,-0.0581,-0.0539,-0.0489,-0.0477,-0.0408,-0.0419,-0.0389,-0.0359,-0.0357,-0.0348,-0.0337,-0.0349,-0.0361,-0.036,-0.0343,-0.0343,-0.0344,0,-0.1119,-0.1026,-0.0974,-0.0943,-0.0851,-0.0828,-0.0789,-0.0725,-0.0689,-0.0632,-0.0608,-0.0547,-0.0513,-0.0466,-0.041,-0.0406,-0.0347,-0.033,-0.0322,-0.0323,-0.031,-0.0312,-0.0318,-0.0291,-0.0291,-0.0291,-0.0291,0,-0.1108,-0.1069,-0.0986,-0.0954,-0.0909,-0.0849,-0.0806,-0.0762,-0.0707,-0.0666,-0.0617,-0.058,-0.0508,-0.0462,-0.0418,-0.0369,-0.0354,-0.0329,-0.0317,-0.0333,-0.0337,-0.0312,-0.0311,-0.0291,-0.0291,-0.0291,-0.0291,0,-0.1132,-0.1075,-0.1015,-0.0935,-0.0914,-0.0885,-0.0816,-0.0784,-0.0739,-0.0688,-0.0673,-0.0602,-0.0546,-0.0486,-0.0409,-0.038,-0.0333,-0.0317,-0.0356,-0.0349,-0.0345,-0.0347,-0.0336,-0.0332,-0.0308,-0.0308,-0.0308,0,-0.1129,-0.1098,-0.1016,-0.0986,-0.0949,-0.09,-0.0865,-0.0805,-0.077,-0.0697,-0.0674,-0.0615,-0.0565,-0.0479,-0.042,-0.0363,-0.0345,-0.0345,-0.0336,-0.0354,-0.0346,-0.0349,-0.0347,-0.0348,-0.0349,-0.0349,-0.0349,0,-0.113,-0.1105,-0.1055,-0.0997,-0.0957,-0.0907,-0.0856,-0.0834,-0.0765,-0.0728,-0.0672,-0.0634,-0.0558,-0.0501,-0.0437,-0.0396,-0.0362,-0.0354,-0.0349,-0.0364,-0.0389,-0.0377,-0.0365,-0.0354,-0.0353,-0.0353,-0.0353,-0.0352,-0.1141,-0.1112,-0.1051,-0.0999,-0.0955,-0.091,-0.0877,-0.0829,-0.0782,-0.0716,-0.0684,-0.0629,-0.0569,-0.048,-0.0441,-0.0398,-0.0387,-0.0379,-0.0377,-0.0377,-0.0382,-0.0397,-0.0385,-0.0385,-0.0385,-0.0385,-0.0385,0,-0.1141,-0.11,-0.1053,-0.0985,-0.0944,-0.0918,-0.0861,-0.0829,-0.0782,-0.0729,-0.0682,-0.062,-0.0565,-0.0505,-0.0447,-0.0424,-0.0407,-0.0411,-0.0412,-0.0404,-0.0394,-0.0404,-0.0426,-0.0426,-0.0426,-0.0426,-0.0426,-0.0426,-0.1136,-0.1087,-0.1055,-0.0985,-0.0945,-0.0891,-0.0862,-0.082,-0.0779,-0.0712,-0.0667,-0.0629,-0.0574,-0.0512,-0.0462,-0.0446,-0.0427,-0.0436,-0.0415,-0.0407,-0.0404,-0.0401,-0.041,-0.0432,-0.0432,-0.0429,-0.0429,-0.0429]}]]